"startDT [UTC]","vpos","CH4 [ppm]","stdev(CH4) [ppm]","CO2 [ppm]","stdev(CO2) [ppm]","H2O_reported [%]","stdev(H2O_reported)","CavityPressure [torr]","CavityTemp [C]","OutletValve","CH4_dry [ppm]","CO2_dry [ppm]","DasTemp [C]","EtalonTemp [C]","WarmBoxTemp [C]","MPVPosition","T_ECpre [C]","T_EC1 [C]","T_EC2 [C]","p_inlet [hPa]","p_in [hPa]","p_out [hPa]","T_inlet [C]","RH_inlet [%]","dwpt_inlet [C]","T_vent [C]","RH_vent [%]","dwpt_vent [C]","flow_vent [l min-1]","flow_inlet [l min-1]","dwpt_sample [C]","T_room [C]"
2015-03-21 00:00:00,0.0,1.93079,0.00095,405.586,0.181,0.1727,0.0015,139.999,45.000,34109.71034,1.93402,406.430,32.563,45.068,45.000,0.00,0.09,-272.71,-272.77,-1,963,-1,21.1,5.1,-19.7,20.6,5.4,-19.5,5.73,1.94,-12.3,25.3
2015-03-21 00:01:00,0.0,1.93011,0.00054,405.652,0.040,0.1728,0.0019,140.000,45.000,34109.61241,1.93344,406.497,32.558,45.068,45.000,0.00,0.09,-272.72,-272.77,-1,964,-1,21.1,5.1,-19.8,20.7,5.4,-19.5,5.73,2.02,-12.3,25.3
2015-03-21 00:02:00,0.0,1.93011,0.00072,405.691,0.026,0.1708,0.0013,140.001,45.000,34109.22280,1.93337,406.528,32.528,45.068,45.000,0.00,0.09,-272.72,-272.78,-1,964,-1,21.1,5.1,-19.8,20.6,5.3,-19.6,5.73,2.01,-12.3,25.3
2015-03-21 00:03:00,0.0,1.92999,0.00072,405.716,0.046,0.1695,0.0026,139.996,45.000,34109.47669,1.93316,406.544,32.506,45.068,45.000,0.00,0.09,-272.72,-272.77,-1,965,-1,21.1,5.0,-19.9,20.7,5.3,-19.7,5.73,1.93,-12.3,25.3
2015-03-21 00:04:00,0.0,1.92988,0.00113,405.713,0.030,0.1695,0.0011,139.998,45.000,34110.08248,1.93318,406.543,32.500,45.068,45.000,0.00,0.09,-272.71,-272.76,-2,966,-1,21.1,5.0,-20.0,20.6,5.3,-19.8,5.73,1.89,-12.3,25.3
2015-03-21 00:05:00,0.0,1.92954,0.00045,405.724,0.034,0.1677,0.0018,140.000,45.000,34108.66658,1.93273,406.545,32.500,45.068,45.000,0.00,0.09,-272.72,-272.77,-2,965,-1,21.1,5.0,-20.0,20.6,5.2,-19.9,5.73,1.94,-12.3,25.3
2015-03-21 00:06:00,0.0,1.93120,0.00042,405.791,0.047,0.1682,0.0021,140.002,45.000,34110.46427,1.93437,406.613,32.500,45.068,45.000,0.00,0.09,-272.72,-272.78,-2,966,-1,21.1,5.0,-20.0,20.6,5.2,-19.8,5.73,2.02,-12.3,25.3
2015-03-21 00:07:00,0.0,1.93190,0.00054,405.794,0.040,0.1679,0.0013,140.004,45.000,34110.25226,1.93508,406.618,32.500,45.068,45.000,0.00,0.09,-272.71,-272.78,-2,965,-1,21.0,5.0,-20.0,20.6,5.2,-19.8,5.73,2.01,-12.3,25.3
2015-03-21 00:08:00,0.0,1.93318,0.00099,405.846,0.041,0.1681,0.0015,140.001,45.000,34109.12294,1.93630,406.668,32.506,45.068,45.000,0.00,0.09,-272.70,-272.76,-2,965,-1,21.1,5.0,-20.0,20.7,5.2,-19.8,5.73,1.93,-12.3,25.3
2015-03-21 00:09:00,0.0,1.93171,0.00108,405.715,0.065,0.1680,0.0013,140.000,45.000,34108.72099,1.93494,406.538,32.518,45.068,45.000,0.00,0.09,-272.72,-272.77,-2,963,-1,21.1,5.0,-20.0,20.6,5.2,-19.9,5.73,1.90,-12.3,25.2
2015-03-21 00:10:00,0.0,1.93205,0.00063,405.770,0.050,0.1686,0.0018,140.004,45.000,34108.64064,1.93531,406.595,32.513,45.068,45.000,0.00,0.09,-272.71,-272.77,-2,964,-1,21.1,5.0,-20.0,20.7,5.2,-19.8,5.73,1.97,-12.3,25.3
2015-03-21 00:11:00,0.0,1.93153,0.00056,405.638,0.144,0.1689,0.0014,139.999,45.000,34110.89162,1.93479,406.466,32.536,45.068,45.000,0.00,0.09,-272.70,-272.77,-1,964,-1,21.1,5.0,-20.0,20.7,5.2,-19.8,5.73,2.02,-12.3,25.3
2015-03-21 00:12:00,0.0,1.92938,0.00062,405.656,0.064,0.1678,0.0019,140.002,45.000,34110.55631,1.93271,406.482,32.548,45.068,45.000,0.00,0.09,-272.72,-272.77,-1,965,-1,21.1,5.0,-20.0,20.6,5.2,-19.9,5.73,1.99,-12.3,25.3
2015-03-21 00:13:00,0.0,1.93069,0.00119,405.499,0.113,0.1680,0.0017,139.998,45.000,34109.79039,1.93373,406.325,32.550,45.068,45.000,0.00,0.09,-272.71,-272.77,-1,966,-1,21.1,5.0,-20.0,20.7,5.2,-19.8,5.73,1.91,-12.3,25.3
2015-03-21 00:14:00,0.0,1.93036,0.00096,405.555,0.089,0.1683,0.0017,139.998,45.000,34109.89166,1.93371,406.375,32.558,45.068,45.000,0.00,0.09,-272.72,-272.77,-2,966,-1,21.1,5.0,-20.0,20.7,5.2,-19.8,5.73,1.90,-12.3,25.3
2015-03-21 00:15:00,0.0,1.93003,0.00057,405.585,0.048,0.1684,0.0018,139.998,45.000,34111.54333,1.93319,406.410,32.561,45.068,45.000,0.00,0.09,-272.71,-272.77,-2,966,-1,21.0,5.0,-20.0,20.6,5.2,-19.8,5.73,1.98,-12.3,25.3
2015-03-21 00:16:00,0.0,1.93270,0.00140,405.444,0.103,0.1694,0.0014,140.000,45.000,34109.87800,1.93578,406.278,32.562,45.068,45.000,0.00,0.09,-272.72,-272.78,-2,965,-1,21.1,5.0,-20.0,20.6,5.2,-19.8,5.73,2.03,-12.3,25.3
2015-03-21 00:17:00,0.0,1.93490,0.00089,405.308,0.050,0.1694,0.0018,139.998,45.000,34106.61355,1.93819,406.136,32.567,45.068,45.000,0.00,0.09,-272.71,-272.76,-2,964,-1,21.1,5.0,-20.0,20.6,5.2,-19.8,5.73,1.98,-12.3,25.3
2015-03-21 00:18:00,0.0,1.93388,0.00091,405.381,0.082,0.1680,0.0019,140.002,45.000,34110.07957,1.93706,406.205,32.563,45.068,45.000,0.00,0.09,-272.71,-272.77,-2,964,-1,21.1,5.0,-20.0,20.6,5.2,-19.8,5.73,1.90,-12.3,25.2
2015-03-21 00:19:00,0.0,1.93198,0.00080,405.516,0.062,0.1666,0.0017,139.999,45.000,34110.70171,1.93518,406.329,32.565,45.068,45.000,0.00,0.09,-272.72,-272.78,-1,964,-1,21.1,5.0,-20.1,20.6,5.2,-19.9,5.73,1.92,-12.3,25.3
2015-03-21 00:20:00,0.0,1.93355,0.00067,405.478,0.067,0.1645,0.0012,139.996,45.000,34107.03756,1.93667,406.282,32.566,45.068,45.000,0.00,0.09,-272.71,-272.77,-1,964,-1,21.1,4.9,-20.2,20.7,5.1,-20.0,5.73,1.99,-12.3,25.2
2015-03-21 00:21:00,0.0,1.93463,0.00047,405.454,0.028,0.1634,0.0013,139.999,45.000,34106.17436,1.93773,406.255,32.566,45.068,45.000,0.00,0.09,-272.71,-272.77,-1,965,-1,21.1,4.9,-20.3,20.6,5.1,-20.2,5.73,2.02,-12.3,25.2
2015-03-21 00:22:00,0.0,1.93614,0.00086,405.361,0.042,0.1632,0.0014,139.998,45.000,34107.40319,1.93911,406.162,32.577,45.068,45.000,0.00,0.09,-272.72,-272.77,-2,965,-1,21.1,4.9,-20.3,20.6,5.1,-20.2,5.73,1.95,-12.3,25.3
2015-03-21 00:23:00,0.0,1.93651,0.00076,405.354,0.065,0.1633,0.0012,140.000,45.000,34107.51620,1.93967,406.152,32.599,45.068,45.000,0.00,0.09,-272.72,-272.78,-2,966,-1,21.1,4.9,-20.3,20.6,5.1,-20.2,5.73,1.90,-12.3,25.2
2015-03-21 00:24:00,0.0,1.93827,0.00059,405.265,0.052,0.1629,0.0012,140.004,45.000,34107.59692,1.94135,406.061,32.601,45.068,45.000,0.00,0.09,-272.71,-272.76,-2,965,-1,21.1,4.9,-20.3,20.6,5.0,-20.2,5.73,1.94,-12.3,25.3
2015-03-21 00:25:00,0.0,1.93853,0.00063,405.299,0.042,0.1632,0.0017,140.000,45.000,34105.40135,1.94166,406.099,32.597,45.068,45.000,0.00,0.09,-272.72,-272.77,-2,965,-1,21.0,4.8,-20.4,20.6,5.0,-20.2,5.73,2.01,-12.3,25.3
2015-03-21 00:26:00,0.0,1.93725,0.00044,405.350,0.041,0.1626,0.0016,140.004,45.000,34105.82325,1.94036,406.143,32.571,45.068,45.000,0.00,0.09,-272.72,-272.77,-1,964,-1,21.0,4.9,-20.3,20.6,5.1,-20.2,5.73,2.02,-12.3,25.2
2015-03-21 00:27:00,0.0,1.93796,0.00053,405.297,0.032,0.1633,0.0016,139.998,45.000,34105.83586,1.94106,406.097,32.562,45.068,45.000,0.00,0.09,-272.71,-272.77,-2,964,-1,21.0,4.9,-20.3,20.6,5.1,-20.2,5.73,1.95,-12.3,25.2
2015-03-21 00:28:00,0.0,1.93876,0.00041,405.291,0.044,0.1646,0.0017,139.997,45.000,34104.78555,1.94192,406.097,32.563,45.068,45.000,0.00,0.09,-272.70,-272.77,-1,964,-1,21.0,4.9,-20.2,20.6,5.1,-20.1,5.73,1.90,-12.3,25.3
2015-03-21 00:29:00,0.0,1.93801,0.00047,405.316,0.028,0.1658,0.0020,140.003,45.000,34105.96431,1.94121,406.126,32.548,45.068,45.000,0.00,0.09,-272.71,-272.77,-2,965,-1,21.1,4.9,-20.2,20.7,5.1,-20.0,5.73,1.94,-12.3,25.3
2015-03-21 00:30:00,0.0,1.93801,0.00063,405.282,0.025,0.1654,0.0013,140.003,45.000,34106.31460,1.94109,406.092,32.539,45.069,45.000,0.00,0.09,-272.71,-272.76,-1,964,-1,21.1,4.9,-20.2,20.6,5.1,-20.0,5.73,2.01,-12.3,25.3
2015-03-21 00:31:00,0.0,1.94028,0.00052,405.206,0.036,0.1654,0.0027,140.000,45.000,34104.45629,1.94342,406.015,32.504,45.069,45.001,0.00,0.09,-272.72,-272.77,-2,966,-1,21.1,4.9,-20.2,20.7,5.1,-20.0,5.73,2.00,-12.3,25.3
2015-03-21 00:32:00,0.0,1.93983,0.00073,405.222,0.040,0.1646,0.0018,139.998,45.000,34104.28365,1.94300,406.026,32.499,45.069,45.000,0.00,0.09,-272.71,-272.77,-2,966,-1,21.1,4.9,-20.2,20.7,5.1,-20.1,5.73,1.92,-12.3,25.3
2015-03-21 00:33:00,0.0,1.93912,0.00051,405.253,0.027,0.1645,0.0015,140.002,45.000,34107.70339,1.94234,406.057,32.500,45.069,45.001,0.00,0.09,-272.72,-272.77,-2,966,-1,21.1,4.9,-20.2,20.7,5.1,-20.1,5.73,1.90,-12.3,25.3
2015-03-21 00:34:00,0.0,1.93884,0.00055,405.263,0.035,0.1645,0.0021,140.003,45.000,34107.54757,1.94197,406.067,32.464,45.069,45.001,0.00,0.09,-272.71,-272.77,-2,965,-1,21.1,4.9,-20.2,20.6,5.1,-20.1,5.73,1.97,-12.3,25.3
2015-03-21 00:35:00,0.0,1.93816,0.00044,405.301,0.024,0.1658,0.0017,140.000,45.000,34108.51159,1.94135,406.109,32.441,45.069,45.001,0.00,0.09,-272.71,-272.77,-2,964,-1,21.1,4.9,-20.2,20.6,5.1,-20.1,5.73,2.02,-12.3,25.3
2015-03-21 00:36:00,0.0,1.93758,0.00038,405.317,0.031,0.1670,0.0025,140.002,45.000,34108.70360,1.94079,406.136,32.443,45.069,45.001,0.00,0.09,-272.71,-272.77,-2,964,-1,21.1,5.0,-20.1,20.6,5.2,-20.0,5.73,2.00,-12.3,25.3
2015-03-21 00:37:00,0.0,1.93754,0.00031,405.313,0.029,0.1682,0.0014,139.997,45.000,34107.32102,1.94075,406.136,32.444,45.069,45.001,0.00,0.09,-272.71,-272.76,-2,964,-1,21.1,5.0,-20.0,20.6,5.2,-19.9,5.73,1.93,-12.3,25.3
2015-03-21 00:38:00,0.0,1.93792,0.00030,405.279,0.033,0.1688,0.0014,139.999,45.000,34106.50912,1.94113,406.104,32.454,45.068,45.000,0.00,0.09,-272.71,-272.76,-1,965,-1,21.1,5.0,-20.0,20.6,5.2,-19.8,5.73,1.90,-12.3,25.3
2015-03-21 00:39:00,0.0,1.93810,0.00027,405.283,0.026,0.1685,0.0017,139.999,45.000,34107.62475,1.94130,406.106,32.467,45.068,45.000,0.00,0.09,-272.72,-272.77,-1,964,-1,21.1,5.0,-19.9,20.7,5.2,-19.8,5.73,1.96,-12.3,25.3
2015-03-21 00:40:00,0.0,1.93846,0.00046,405.235,0.035,0.1686,0.0014,140.004,45.000,34110.01184,1.94170,406.061,32.468,45.068,45.000,0.00,0.09,-272.72,-272.77,-1,965,-1,21.1,5.1,-19.9,20.7,5.2,-19.8,5.73,2.02,-12.3,25.3
2015-03-21 00:41:00,0.0,1.93828,0.00050,405.255,0.033,0.1692,0.0011,140.003,45.000,34109.59190,1.94152,406.083,32.468,45.068,45.000,0.00,0.09,-272.71,-272.77,-1,965,-1,21.0,5.0,-19.9,20.6,5.2,-19.8,5.73,1.99,-12.3,25.3
2015-03-21 00:42:00,0.0,1.93773,0.00092,405.275,0.030,0.1698,0.0016,140.001,45.000,34109.14286,1.94106,406.105,32.493,45.068,45.000,0.00,0.09,-272.71,-272.77,-2,966,-1,21.1,5.1,-19.9,20.7,5.3,-19.7,5.73,1.92,-12.3,25.3
2015-03-21 00:43:00,0.0,1.93732,0.00077,405.266,0.026,0.1708,0.0016,140.000,45.000,34109.24530,1.94052,406.101,32.498,45.068,45.000,0.00,0.09,-272.72,-272.78,-2,966,-1,21.1,5.1,-19.9,20.7,5.3,-19.7,5.73,1.90,-12.3,25.3
2015-03-21 00:44:00,0.0,1.93750,0.00069,405.265,0.039,0.1711,0.0017,139.999,45.000,34108.05392,1.94086,406.101,32.500,45.068,45.000,0.00,0.09,-272.72,-272.77,-2,966,-1,21.0,5.1,-19.8,20.7,5.3,-19.6,5.73,1.97,-12.3,25.3
2015-03-21 00:45:00,0.0,1.93661,0.00044,405.279,0.024,0.1723,0.0011,140.000,45.000,34107.95858,1.93990,406.123,32.499,45.068,45.000,0.00,0.09,-272.71,-272.77,-2,965,-1,21.0,5.1,-19.8,20.7,5.3,-19.6,5.73,2.04,-12.3,25.3
2015-03-21 00:46:00,0.0,1.93619,0.00045,405.288,0.033,0.1733,0.0019,140.000,45.000,34107.69902,1.93950,406.136,32.501,45.068,45.000,0.00,0.09,-272.72,-272.77,-2,965,-1,21.1,5.2,-19.7,20.7,5.4,-19.5,5.73,1.99,-12.3,25.3
2015-03-21 00:47:00,0.0,1.93815,0.00062,405.260,0.019,0.1739,0.0020,140.000,45.000,34106.52354,1.94141,406.112,32.502,45.068,45.000,0.00,0.09,-272.72,-272.77,-1,963,-1,21.0,5.2,-19.6,20.7,5.4,-19.4,5.73,1.92,-12.3,25.3
2015-03-21 00:48:00,0.0,1.93760,0.00076,405.275,0.032,0.1734,0.0016,139.998,45.000,34104.80962,1.94092,406.123,32.507,45.068,45.000,0.00,0.09,-272.70,-272.77,-1,964,-1,21.1,5.2,-19.6,20.6,5.4,-19.4,5.73,1.91,-12.3,25.3
2015-03-21 00:49:00,0.0,1.93777,0.00052,405.270,0.044,0.1733,0.0017,140.000,45.000,34106.43091,1.94107,406.117,32.508,45.068,45.000,0.00,0.09,-272.72,-272.77,-1,964,-1,21.1,5.2,-19.6,20.6,5.4,-19.4,5.73,1.98,-12.3,25.3
2015-03-21 00:50:00,0.0,1.93838,0.00092,405.244,0.047,0.1746,0.0017,139.999,45.000,34108.49083,1.94171,406.099,32.516,45.068,45.000,0.00,0.09,-272.72,-272.77,-2,965,-1,21.0,5.2,-19.6,20.6,5.4,-19.4,5.73,2.02,-12.3,25.3
2015-03-21 00:51:00,0.0,1.93786,0.00046,405.240,0.033,0.1744,0.0018,140.002,45.000,34110.76894,1.94118,406.094,32.510,45.068,45.000,0.00,0.09,-272.71,-272.77,-2,965,-1,21.1,5.2,-19.6,20.7,5.4,-19.4,5.73,1.98,-12.3,25.3
2015-03-21 00:52:00,0.0,1.93778,0.00056,405.230,0.029,0.1763,0.0020,139.999,45.000,34109.09441,1.94119,406.092,32.554,45.068,45.000,0.00,0.09,-272.71,-272.76,-2,966,-1,21.0,5.2,-19.6,20.7,5.4,-19.3,5.73,1.91,-12.3,25.3
2015-03-21 00:53:00,0.0,1.93733,0.00047,405.220,0.038,0.1756,0.0016,139.999,45.000,34108.40580,1.94076,406.079,32.561,45.068,45.000,0.00,0.09,-272.71,-272.78,-2,966,-1,21.1,5.3,-19.5,20.7,5.5,-19.3,5.73,1.91,-12.3,25.3
2015-03-21 00:54:00,0.0,1.93578,0.00087,405.280,0.026,0.1774,0.0015,139.998,45.000,34108.50421,1.93918,406.148,32.563,45.068,45.000,0.00,0.09,-272.71,-272.77,-2,966,-1,21.1,5.3,-19.4,20.7,5.5,-19.2,5.73,1.98,-12.3,25.3
2015-03-21 00:55:00,0.0,1.93687,0.00071,405.242,0.034,0.1792,0.0018,140.002,45.000,34106.49304,1.94026,406.119,32.557,45.068,45.000,0.00,0.09,-272.71,-272.77,-2,965,-1,21.0,5.3,-19.3,20.7,5.5,-19.2,5.73,2.03,-12.3,25.3
2015-03-21 00:56:00,0.0,1.93809,0.00032,405.207,0.024,0.1810,0.0018,139.998,45.000,34106.30892,1.94151,406.093,32.543,45.068,45.000,0.00,0.09,-272.71,-272.77,-2,964,-1,21.1,5.4,-19.2,20.7,5.6,-19.1,5.73,1.98,-12.3,25.3
2015-03-21 00:57:00,0.0,1.93788,0.00058,405.206,0.022,0.1821,0.0018,140.000,45.000,34107.72539,1.94143,406.097,32.512,45.068,45.000,0.00,0.09,-272.71,-272.77,-2,964,-1,21.1,5.4,-19.1,20.7,5.6,-19.0,5.73,1.90,-12.3,25.3
2015-03-21 00:58:00,0.0,1.93828,0.00096,405.209,0.034,0.1822,0.0009,140.004,45.000,34110.34383,1.94162,406.101,32.555,45.068,45.000,0.00,0.09,-272.71,-272.76,-2,964,-1,21.1,5.5,-19.0,20.7,5.7,-18.9,5.73,1.91,-12.3,25.3
2015-03-21 00:59:00,0.0,1.93886,0.00046,405.180,0.032,0.1842,0.0016,140.001,45.000,34108.36290,1.94244,406.080,32.563,45.068,45.000,0.00,0.09,-272.72,-272.77,-1,964,-1,21.1,5.5,-19.0,20.7,5.7,-18.8,5.73,1.99,-12.3,25.3
2015-03-21 01:00:00,0.0,1.93843,0.00040,405.170,0.031,0.1855,0.0017,139.999,45.000,34109.53370,1.94201,406.079,32.568,45.068,45.000,0.00,0.09,-272.71,-272.78,-1,964,-1,21.1,5.5,-18.9,20.7,5.7,-18.7,5.73,2.03,-12.3,25.3
2015-03-21 01:01:00,0.0,1.93769,0.00055,405.165,0.040,0.1858,0.0015,140.001,45.000,34109.87481,1.94130,406.075,32.565,45.068,45.000,0.00,0.09,-272.71,-272.77,-1,964,-1,21.1,5.5,-18.9,20.7,5.8,-18.7,5.73,1.97,-12.3,25.4
2015-03-21 01:02:00,0.0,1.93767,0.00097,405.165,0.031,0.1853,0.0011,140.000,45.000,34108.99700,1.94114,406.072,32.571,45.068,45.000,0.00,0.09,-272.72,-272.77,-1,966,-1,21.1,5.5,-18.9,20.7,5.8,-18.7,5.73,1.89,-12.3,25.3
2015-03-21 01:03:00,0.0,1.93842,0.00039,405.186,0.028,0.1850,0.0014,139.994,45.000,34106.80557,1.94197,406.090,32.578,45.068,45.000,0.00,0.09,-272.71,-272.76,-2,966,-1,21.1,5.5,-18.9,20.7,5.8,-18.7,5.73,1.91,-12.3,25.3
2015-03-21 01:04:00,0.0,1.93763,0.00040,405.156,0.034,0.1861,0.0015,139.993,45.000,34106.33818,1.94121,406.068,32.568,45.068,45.000,0.00,0.09,-272.72,-272.77,-2,966,-1,21.1,5.5,-18.8,20.7,5.8,-18.7,5.73,1.99,-12.3,25.3
2015-03-21 01:05:00,0.0,1.93825,0.00034,405.154,0.032,0.1867,0.0023,140.000,45.000,34107.68511,1.94181,406.068,32.563,45.068,45.000,0.00,0.09,-272.70,-272.77,-2,966,-1,21.1,5.5,-18.8,20.7,5.8,-18.6,5.73,2.02,-12.3,25.3
2015-03-21 01:06:00,0.0,1.93843,0.00049,405.134,0.030,0.1867,0.0022,139.999,45.000,34110.28141,1.94198,406.047,32.566,45.068,45.000,0.00,0.09,-272.71,-272.77,-2,966,-1,21.1,5.6,-18.8,20.7,5.8,-18.6,5.73,1.97,-12.3,25.3
2015-03-21 01:07:00,0.0,1.93858,0.00034,405.148,0.027,0.1893,0.0019,139.998,45.000,34109.23684,1.94222,406.073,32.572,45.068,45.000,0.00,0.09,-272.71,-272.78,-2,965,-1,21.1,5.6,-18.7,20.7,5.9,-18.5,5.73,1.91,-12.3,25.3
2015-03-21 01:08:00,0.0,1.93804,0.00043,405.144,0.026,0.1921,0.0021,140.003,45.000,34108.14465,1.94175,406.085,32.568,45.068,45.000,0.00,0.09,-272.71,-272.76,-2,964,-1,21.1,5.7,-18.5,20.7,5.9,-18.3,5.73,1.92,-12.3,25.4
2015-03-21 01:09:00,0.0,1.93828,0.00043,405.142,0.027,0.1933,0.0012,140.001,45.000,34108.10410,1.94195,406.088,32.563,45.068,45.000,0.00,0.09,-272.71,-272.77,-1,963,-1,21.1,5.8,-18.4,20.7,6.0,-18.2,5.73,2.00,-12.3,25.3
2015-03-21 01:10:00,0.0,1.93848,0.00042,405.105,0.035,0.1961,0.0018,139.998,45.000,34108.02221,1.94224,406.063,32.563,45.068,45.000,0.00,0.09,-272.72,-272.77,-2,964,-1,21.1,5.9,-18.2,20.7,6.1,-18.1,5.73,2.03,-12.3,25.4
2015-03-21 01:11:00,0.0,1.93841,0.00042,405.084,0.031,0.1994,0.0021,140.001,45.000,34109.31861,1.94227,406.060,32.563,45.068,45.000,0.00,0.09,-272.72,-272.77,-1,964,-1,21.1,6.0,-18.0,20.7,6.2,-17.9,5.73,1.96,-12.3,25.3
2015-03-21 01:12:00,0.0,1.93742,0.00051,405.081,0.033,0.2025,0.0021,140.000,45.000,34109.18973,1.94126,406.073,32.563,45.068,45.000,0.00,0.09,-272.71,-272.77,-1,965,-1,21.1,6.1,-17.8,20.7,6.3,-17.7,5.73,1.89,-12.3,25.3
2015-03-21 01:13:00,0.0,1.93779,0.00047,405.050,0.034,0.2047,0.0020,140.000,45.000,34110.50311,1.94172,406.053,32.564,45.068,45.000,0.00,0.09,-272.71,-272.78,-1,965,-1,21.1,6.1,-17.7,20.7,6.3,-17.6,5.73,1.91,-12.3,25.4
2015-03-21 01:14:00,0.0,1.93807,0.00041,405.038,0.044,0.2060,0.0010,139.999,45.000,34113.50191,1.94207,406.045,32.563,45.068,45.000,0.00,0.09,-272.71,-272.76,-1,966,-1,21.1,6.2,-17.6,20.7,6.4,-17.5,5.73,1.99,-12.3,25.3
2015-03-21 01:15:00,0.0,1.93775,0.00028,405.070,0.035,0.2053,0.0018,140.000,45.000,34112.60324,1.94167,406.077,32.560,45.068,45.000,0.00,0.09,-272.71,-272.77,-2,965,-1,21.1,6.2,-17.6,20.7,6.4,-17.5,5.73,2.02,-12.3,25.3
2015-03-21 01:16:00,0.0,1.93764,0.00032,405.057,0.036,0.2047,0.0016,139.998,45.000,34109.86919,1.94156,406.058,32.558,45.068,45.000,0.00,0.09,-272.71,-272.77,-2,966,-1,21.1,6.2,-17.6,20.7,6.4,-17.5,5.73,1.97,-12.3,25.3
2015-03-21 01:17:00,0.0,1.93750,0.00048,405.083,0.025,0.2042,0.0012,139.996,45.000,34105.35182,1.94144,406.082,32.555,45.068,45.000,0.00,0.09,-272.70,-272.78,-2,966,-1,21.1,6.1,-17.7,20.7,6.4,-17.5,5.73,1.91,-12.3,25.3
2015-03-21 01:18:00,0.0,1.93714,0.00054,405.077,0.032,0.2031,0.0019,139.998,45.000,34108.14561,1.94105,406.072,32.563,45.068,45.000,0.00,0.09,-272.70,-272.76,-2,966,-1,21.1,6.1,-17.8,20.7,6.3,-17.6,5.73,1.91,-12.3,25.4
2015-03-21 01:19:00,0.0,1.93625,0.00031,405.072,0.024,0.2035,0.0014,139.999,45.000,34110.88989,1.94015,406.068,32.561,45.068,45.000,0.00,0.09,-272.71,-272.77,-3,966,-1,21.1,6.1,-17.8,20.7,6.3,-17.6,5.73,1.98,-12.3,25.4
2015-03-21 01:20:00,0.0,1.93673,0.00034,405.084,0.033,0.2041,0.0015,140.001,45.000,34108.82953,1.94064,406.082,32.562,45.068,45.000,0.00,0.09,-272.71,-272.78,-2,966,-1,21.1,6.1,-17.7,20.7,6.3,-17.6,5.73,2.03,-12.3,25.3
2015-03-21 01:21:00,0.0,1.93655,0.00039,405.072,0.045,0.2061,0.0016,140.000,45.000,34110.76821,1.94050,406.081,32.558,45.068,45.000,0.00,0.09,-272.71,-272.79,-2,965,-1,21.1,6.2,-17.6,20.7,6.4,-17.5,5.73,1.99,-12.3,25.3
2015-03-21 01:22:00,0.0,1.93703,0.00047,405.086,0.031,0.2084,0.0015,140.003,45.000,34108.96668,1.94097,406.107,32.559,45.068,45.000,0.00,0.09,-272.69,-272.77,-2,966,-1,21.1,6.2,-17.5,20.7,6.4,-17.4,5.73,1.92,-12.3,25.3
2015-03-21 01:23:00,0.0,1.93837,0.00037,405.037,0.025,0.2098,0.0016,139.996,45.000,34107.74506,1.94237,406.062,32.542,45.068,45.000,0.00,0.09,-272.72,-272.76,-2,965,-1,21.1,6.3,-17.4,20.7,6.5,-17.2,5.73,1.91,-12.3,25.3
2015-03-21 01:24:00,0.0,1.93752,0.00061,405.037,0.025,0.2131,0.0013,139.998,45.000,34107.40479,1.94165,406.080,32.525,45.068,45.000,0.00,0.09,-272.71,-272.78,-2,965,-1,21.1,6.4,-17.2,20.7,6.6,-17.1,5.73,1.97,-12.3,25.3
2015-03-21 01:25:00,0.0,1.93733,0.00042,405.039,0.023,0.2133,0.0015,139.994,45.000,34107.03991,1.94142,406.082,32.542,45.068,45.000,0.00,0.09,-272.71,-272.78,-2,964,-1,21.1,6.4,-17.2,20.7,6.6,-17.0,5.73,2.02,-12.3,25.3
2015-03-21 01:26:00,0.0,1.93725,0.00030,405.021,0.037,0.2124,0.0016,140.001,45.000,34109.56153,1.94129,406.065,32.563,45.068,45.000,0.00,0.09,-272.72,-272.78,-2,964,-1,21.1,6.4,-17.2,20.7,6.6,-17.1,5.73,2.00,-12.3,25.3
2015-03-21 01:27:00,0.0,1.93759,0.00060,405.038,0.037,0.2135,0.0021,140.002,45.000,34110.35392,1.94166,406.082,32.558,45.068,45.000,0.00,0.09,-272.70,-272.77,-2,964,-1,21.1,6.4,-17.2,20.7,6.6,-17.1,5.73,1.93,-12.3,25.3
2015-03-21 01:28:00,0.0,1.93930,0.00033,405.020,0.041,0.2147,0.0013,140.002,45.000,34111.40416,1.94335,406.072,32.563,45.068,45.000,0.00,0.09,-272.70,-272.77,-2,965,-1,21.1,6.4,-17.1,20.7,6.7,-17.0,5.73,1.90,-12.3,25.4
2015-03-21 01:29:00,0.0,1.93991,0.00036,405.015,0.031,0.2152,0.0014,140.001,45.000,34109.98491,1.94404,406.067,32.563,45.068,45.000,0.00,0.09,-272.71,-272.77,-1,964,-1,21.1,6.5,-17.0,20.7,6.7,-16.9,5.73,1.94,-12.3,25.4
2015-03-21 01:30:00,0.0,1.93941,0.00042,405.001,0.027,0.2165,0.0014,139.999,45.000,34109.25029,1.94363,406.062,32.565,45.068,45.000,0.00,0.09,-272.72,-272.80,-1,964,-1,21.1,6.5,-17.0,20.7,6.7,-16.9,5.73,2.01,-12.3,25.4
2015-03-21 01:31:00,0.0,1.93917,0.00047,404.992,0.031,0.2162,0.0016,140.001,45.000,34108.42919,1.94328,406.048,32.568,45.068,45.000,0.00,0.09,-272.71,-272.76,-2,965,-1,21.1,6.5,-17.0,20.7,6.7,-16.8,5.73,2.02,-12.3,25.3
2015-03-21 01:32:00,0.0,1.94016,0.00078,405.002,0.031,0.2160,0.0015,140.001,45.000,34106.92792,1.94425,406.061,32.564,45.068,45.000,0.00,0.09,-272.70,-272.76,-2,965,-1,21.1,6.4,-17.0,20.7,6.7,-16.9,5.73,1.94,-12.3,25.3
2015-03-21 01:33:00,0.0,1.94053,0.00019,404.974,0.032,0.2170,0.0018,139.998,45.000,34107.47676,1.94470,406.037,32.563,45.068,45.000,0.00,0.09,-272.70,-272.77,-2,966,-1,21.1,6.5,-17.0,20.7,6.7,-16.8,5.73,1.89,-12.3,25.3
2015-03-21 01:34:00,0.0,1.93966,0.00031,405.000,0.038,0.2170,0.0026,140.001,45.000,34107.69830,1.94388,406.061,32.563,45.068,45.000,0.00,0.09,-272.72,-272.77,-2,965,-1,21.1,6.5,-17.0,20.7,6.7,-16.8,5.73,1.93,-12.3,25.4
2015-03-21 01:35:00,0.0,1.93897,0.00044,405.013,0.028,0.2171,0.0014,140.000,45.000,34107.17529,1.94316,406.078,32.564,45.068,45.000,0.00,0.09,-272.72,-272.76,-2,966,-1,21.1,6.5,-17.0,20.7,6.7,-16.9,5.73,2.00,-12.3,25.4
2015-03-21 01:36:00,0.0,1.93824,0.00036,405.023,0.029,0.2175,0.0012,140.001,45.000,34108.92089,1.94239,406.087,32.565,45.068,45.000,0.00,0.09,-272.72,-272.78,-2,966,-1,21.1,6.5,-17.0,20.7,6.7,-16.8,5.73,2.01,-12.3,25.3
2015-03-21 01:37:00,0.0,1.93892,0.00051,405.024,0.040,0.2173,0.0017,140.005,45.000,34108.08242,1.94308,406.087,32.564,45.068,45.000,0.00,0.09,-272.71,-272.78,-2,966,-1,21.1,6.5,-17.0,20.7,6.7,-16.8,5.73,1.94,-12.3,25.3
2015-03-21 01:38:00,0.0,1.94006,0.00046,405.024,0.036,0.2156,0.0018,139.998,45.000,34107.74703,1.94414,406.081,32.565,45.068,45.000,0.00,0.09,-272.72,-272.77,-2,966,-1,21.1,6.4,-17.0,20.7,6.7,-16.9,5.73,1.90,-12.3,25.3
2015-03-21 01:39:00,0.0,1.94150,0.00100,405.012,0.034,0.2138,0.0013,140.003,45.000,34111.70216,1.94558,406.059,32.584,45.068,45.000,0.00,0.09,-272.72,-272.77,-3,965,-1,21.1,6.4,-17.1,20.7,6.7,-16.9,5.73,1.93,-12.3,25.3
2015-03-21 01:40:00,0.0,1.94162,0.00064,405.019,0.038,0.2121,0.0013,140.002,45.000,34111.02734,1.94573,406.057,32.580,45.068,45.000,0.00,0.09,-272.72,-272.77,-3,965,-1,21.1,6.3,-17.3,20.7,6.6,-17.1,5.73,2.00,-12.3,25.3
2015-03-21 01:41:00,0.0,1.94219,0.00116,405.054,0.031,0.2131,0.0010,140.002,45.000,34110.58890,1.94618,406.098,32.609,45.068,45.000,0.00,0.09,-272.72,-272.77,-3,965,-1,21.1,6.3,-17.3,20.7,6.6,-17.1,5.73,2.03,-12.3,25.4
2015-03-21 01:42:00,0.0,1.94272,0.00059,404.974,0.030,0.2120,0.0016,139.996,45.000,34109.78214,1.94682,406.013,32.615,45.068,45.000,0.00,0.09,-272.71,-272.77,-2,964,-1,21.1,6.3,-17.3,20.7,6.6,-17.1,5.73,1.96,-12.3,25.4
2015-03-21 01:43:00,0.0,1.94168,0.00072,405.020,0.036,0.2122,0.0019,140.000,45.000,34110.93001,1.94579,406.058,32.604,45.068,45.000,0.00,0.09,-272.72,-272.77,-2,964,-1,21.1,6.3,-17.2,20.7,6.6,-17.1,5.73,1.91,-12.3,25.4
2015-03-21 01:44:00,0.0,1.94224,0.00041,405.014,0.037,0.2125,0.0020,140.002,45.000,34111.73537,1.94635,406.055,32.621,45.068,45.000,0.00,0.09,-272.71,-272.77,-2,964,-1,21.1,6.4,-17.2,20.7,6.6,-17.1,5.73,1.93,-12.3,25.4
2015-03-21 01:45:00,0.0,1.93952,0.00120,405.042,0.039,0.2125,0.0019,139.999,45.000,34111.14900,1.94375,406.081,32.618,45.068,45.000,0.00,0.09,-272.71,-272.77,-2,964,-1,21.1,6.4,-17.2,20.7,6.6,-17.0,5.73,1.98,-12.3,25.3
2015-03-21 01:46:00,0.0,1.94225,0.00145,405.045,0.041,0.2136,0.0023,140.000,45.000,34111.83000,1.94610,406.093,32.623,45.068,45.000,0.00,0.09,-272.71,-272.77,-2,964,-1,21.1,6.4,-17.2,20.7,6.6,-17.0,5.73,2.02,-12.2,25.4